Probability
26 26 32 42 52 61 77 81 90 65 58 35 29 16 6 3 0 0 0 0 0 0 0 0 0 0 0 0 0 0 0 0 0 0 0 0 0 0 0 0 0 0 0
26 29 32 42 61 65 74 77 84 71 48 35 19 6 3 0 0 0 0 0 0 0 0 0 0 0 0 0 0 0 0 0 0 0 0 0 0 0 0 0 0 0 0
32 45 55 58 58 61 65 81 74 68 42 23 13 0 0 0 0 0 0 0 0 0 0 0 0 0 0 0 0 0 0 0 0 0 0 0 0 0 0 0 0 0 0
42 52 58 55 65 61 68 61 61 55 29 16 10 10 3 0 0 0 0 0 0 0 0 0 0 0 0 0 0 0 0 0 0 0 0 0 0 0 0 0 0 0 0
58 65 74 68 71 61 55 48 45 26 16 16 10 6 3 0 0 0 0 0 0 0 0 0 0 0 0 0 0 0 0 0 0 0 0 0 0 0 0 0 0 0 0
55 65 71 68 61 42 42 42 29 23 16 16 6 6 0 0 0 0 0 0 0 0 0 0 0 0 0 0 0 0 0 0 0 0 0 0 0 0 0 0 0 0 0
61 61 74 65 55 48 39 26 19 10 10 6 3 0 0 0 0 0 0 0 0 0 0 0 0 0 0 0 0 0 0 0 0 0 0 0 0 0 0 0 0 0 0
68 71 61 61 45 29 26 13 13 3 3 3 0 0 0 0 0 0 0 0 0 0 0 0 0 0 0 0 0 0 0 0 0 0 0 0 0 0 0 0 0 0 0
58 58 42 32 19 10 6 6 3 0 0 0 0 0 0 0 0 0 0 0 0 0 0 0 0 0 0 0 0 0 0 0 0 0 0 0 0 0 0 0 0 0 0
42 26 23 13 6 3 3 0 0 0 0 0 0 0 0 0 0 0 0 0 0 0 0 0 0 0 0 0 0 0 0 0 0 0 0 0 0 0 0 0 0 0 0
16 10 10 6 3 3 0 0 0 0 0 0 0 0 0 0 0 0 0 0 0 0 0 0 0 0 0 0 0 0 0 0 0 0 0 0 0 0 0 0 0 0 0
6 6 3 0 0 0 0 0 0 0 0 0 0 0 0 0 0 0 0 0 0 0 0 0 0 0 0 0 0 0 0 0 0 0 0 0 0 0 0 0 0 0 0
3 0 0 0 0 0 0 0 0 0 0 0 0 0 0 0 0 0 0 0 0 0 0 0 0 0 0 0 0 0 0 0 0 0 0 0 0 0 0 0 0 0 0
0 0 0 0 0 0 0 0 0 0 0 0 0 0 0 0 0 0 0 0 0 0 0 0 0 0 0 0 0 0 0 0 0 0 0 0 0 0 0 0 0 0 0
0 0 0 0 0 0 0 0 0 0 0 0 0 0 0 0 0 0 0 0 0 0 0 0 0 0 0 0 0 0 0 0 0 0 0 0 0 0 0 0 0 0 0
0 0 0 0 0 0 0 0 0 0 0 0 0 0 0 0 0 0 0 0 0 0 0 0 0 0 0 0 0 0 0 0 0 0 0 0 0 0 0 0 0 0 0
0 0 0 0 0 0 0 0 0 0 0 0 0 0 0 0 0 0 0 0 0 0 0 0 0 0 0 0 0 0 0 0 0 0 0 0 0 0 0 0 0 0 0
0 0 0 0 0 0 0 0 0 0 0 0 0 0 0 0 0 0 0 0 0 0 0 0 0 0 0 0 0 0 0 0 0 0 0 0 0 0 0 0 0 0 0
0 0 0 0 0 0 0 0 0 0 0 0 0 0 0 0 0 0 0 0 0 0 0 0 0 0 0 0 0 0 0 0 0 0 0 0 0 0 0 0 0 0 0
0 0 0 0 0 0 0 0 0 0 0 0 0 0 0 0 0 0 0 0 0 0 0 0 0 0 0 0 0 0 0 0 0 0 0 0 0 0 0 0 0 0 0
0 0 0 0 0 0 0 0 0 0 0 0 0 0 0 0 0 0 0 0 0 0 0 0 0 0 0 0 0 0 0 0 0 0 0 0 0 0 0 0 0 0 0
0 0 0 0 0 0 0 0 0 0 0 0 0 0 0 0 0 0 0 0 0 0 0 0 0 0 0 0 0 0 0 0 0 0 0 0 0 0 0 0 0 0 0
0 0 0 0 0 0 0 0 0 0 0 0 0 0 0 0 0 0 0 0 0 0 0 0 0 0 0 0 0 0 0 0 0 0 0 0 0 0 0 0 0 0 0
0 0 0 0 0 0 0 0 0 0 0 0 0 0 0 0 0 0 0 0 0 0 0 0 0 0 0 0 0 0 0 0 0 0 0 0 0 0 0 0 0 0 0
0 0 0 0 0 0 0 0 0 0 0 0 0 0 0 0 0 0 0 0 0 0 0 0 0 0 0 0 0 0 0 0 0 0 0 0 0 0 0 0 0 0 0
0 0 0 0 0 0 0 0 0 0 0 0 0 0 0 0 0 0 0 0 0 0 0 0 0 0 0 0 0 0 0 0 0 0 0 0 0 0 0 0 0 0 0
Height
5863 5862 5861 5861 5861 5860 5859 5859 5857 5855 5852 5849 5847 5847 5846 5845 5843 5842 5839 5837 5835 5833 5831 5829 5828 5826 5824 5822 5820 5817 5815 5813 5811 5809 5807 5804 5800 5796 5793 5789 5786 5782 5778
5858 5857 5856 5854 5854 5853 5853 5853 5851 5849 5846 5843 5841 5840 5839 5837 5836 5834 5832 5830 5827 5825 5823 5821 5819 5817 5815 5813 5810 5808 5805 5802 5800 5798 5795 5793 5790 5785 5781 5777 5773 5769 5764
5851 5851 5850 5849 5848 5847 5847 5846 5845 5842 5839 5836 5834 5832 5831 5829 5828 5826 5824 5822 5819 5818 5815 5813 5810 5808 5805 5803 5800 5798 5795 5791 5789 5786 5784 5781 5778 5774 5770 5764 5760 5755 5750
5845 5845 5844 5843 5842 5841 5840 5839 5837 5834 5831 5828 5825 5823 5823 5822 5820 5818 5816 5814 5811 5809 5806 5803 5801 5798 5796 5793 5790 5787 5784 5781 5777 5774 5771 5769 5765 5761 5757 5752 5746 5740 5736
5838 5838 5838 5837 5836 5835 5833 5831 5829 5826 5823 5820 5818 5817 5815 5814 5813 5810 5808 5805 5803 5800 5797 5795 5792 5789 5786 5783 5780 5777 5774 5770 5766 5762 5758 5754 5750 5746 5743 5739 5733 5726 5720
5831 5831 5831 5830 5829 5828 5826 5824 5821 5819 5817 5814 5813 5811 5809 5807 5805 5803 5800 5798 5795 5792 5789 5785 5782 5779 5776 5772 5769 5766 5762 5758 5754 5750 5745 5741 5736 5731 5726 5723 5718 5713 5706
5825 5825 5825 5824 5822 5820 5818 5815 5813 5811 5809 5807 5805 5803 5801 5799 5797 5795 5792 5789 5786 5783 5779 5776 5772 5769 5765 5761 5758 5754 5750 5745 5741 5736 5731 5726 5721 5716 5711 5706 5702 5697 5692
5818 5818 5817 5816 5814 5812 5810 5807 5805 5803 5801 5800 5797 5796 5793 5791 5788 5785 5783 5779 5776 5773 5769 5765 5761 5758 5753 5750 5746 5741 5737 5732 5727 5722 5716 5711 5705 5700 5694 5689 5685 5681 5676
5811 5811 5809 5808 5806 5804 5801 5798 5797 5795 5793 5792 5790 5787 5784 5781 5778 5775 5772 5769 5765 5761 5758 5754 5750 5746 5741 5737 5733 5728 5723 5718 5712 5707 5701 5696 5690 5684 5677 5672 5666 5662 5658
5805 5804 5803 5801 5798 5796 5794 5792 5790 5787 5785 5783 5781 5778 5774 5771 5768 5764 5761 5757 5753 5749 5745 5741 5737 5733 5728 5723 5718 5713 5708 5702 5697 5691 5686 5680 5674 5668 5661 5654 5648 5641 5636
5797 5796 5795 5793 5791 5789 5786 5783 5781 5779 5777 5774 5771 5768 5765 5761 5757 5753 5749 5745 5741 5737 5732 5728 5723 5719 5714 5709 5703 5698 5693 5688 5682 5676 5670 5664 5658 5651 5644 5638 5630 5623 5615
5789 5788 5786 5785 5783 5781 5778 5775 5772 5770 5767 5764 5761 5757 5753 5749 5745 5741 5737 5732 5728 5723 5718 5714 5709 5704 5699 5694 5689 5684 5678 5673 5667 5661 5655 5648 5642 5635 5628 5621 5613 5605 5597
5780 5779 5777 5776 5774 5771 5768 5765 5762 5759 5756 5753 5750 5745 5741 5736 5732 5728 5723 5718 5714 5709 5704 5700 5695 5690 5685 5679 5674 5669 5664 5658 5652 5646 5640 5633 5626 5620 5612 5605 5597 5588 5579
5771 5770 5768 5766 5763 5760 5757 5754 5751 5748 5744 5740 5736 5732 5727 5723 5718 5714 5709 5704 5700 5695 5690 5686 5681 5675 5670 5665 5660 5655 5649 5643 5637 5631 5625 5618 5611 5604 5597 5589 5581 5573 5565
5761 5759 5757 5755 5752 5749 5745 5742 5738 5734 5730 5726 5722 5717 5713 5708 5704 5699 5694 5690 5685 5681 5676 5671 5666 5662 5657 5652 5646 5640 5635 5629 5623 5616 5610 5603 5596 5589 5582 5575 5567 5560 5554
5750 5748 5746 5743 5740 5736 5733 5729 5724 5720 5715 5711 5707 5702 5698 5693 5689 5685 5680 5675 5671 5666 5662 5657 5653 5648 5643 5637 5632 5626 5621 5615 5609 5603 5596 5589 5582 5575 5568 5562 5556 5550 5545
5739 5737 5734 5731 5727 5723 5719 5715 5710 5706 5701 5697 5692 5688 5684 5679 5675 5671 5666 5662 5658 5653 5649 5644 5639 5634 5629 5624 5618 5612 5607 5601 5596 5590 5583 5576 5570 5564 5559 5553 5548 5543 5539
5728 5725 5721 5718 5714 5710 5706 5702 5697 5692 5688 5683 5679 5675 5670 5666 5662 5658 5653 5649 5645 5640 5636 5631 5626 5621 5616 5610 5605 5600 5594 5588 5583 5578 5572 5566 5560 5556 5551 5547 5543 5539 5535
5716 5713 5709 5706 5702 5698 5694 5689 5684 5680 5675 5671 5666 5662 5658 5654 5650 5646 5642 5637 5633 5628 5623 5618 5613 5608 5603 5598 5593 5587 5582 5577 5572 5567 5562 5558 5553 5549 5546 5542 5539 5536 5533
5705 5701 5698 5694 5690 5686 5682 5677 5672 5668 5664 5660 5655 5651 5647 5643 5639 5634 5629 5625 5620 5615 5610 5605 5601 5596 5591 5587 5582 5577 5572 5567 5562 5559 5555 5552 5548 5545 5542 5539 5537 5535 5532
5694 5691 5687 5683 5679 5675 5671 5666 5662 5658 5654 5649 5645 5641 5636 5632 5627 5623 5618 5613 5608 5603 5599 5594 5590 5585 5581 5576 5572 5568 5564 5560 5556 5553 5550 5547 5545 5542 5540 5538 5536 5534 5531
5683 5680 5676 5673 5669 5665 5661 5657 5653 5648 5644 5640 5635 5631 5626 5621 5616 5611 5607 5602 5597 5592 5587 5583 5579 5575 5571 5567 5564 5560 5557 5554 5551 5549 5547 5545 5543 5541 5539 5538 5536 5534 5532
5674 5671 5667 5663 5660 5656 5652 5648 5644 5640 5635 5631 5626 5621 5616 5611 5606 5601 5596 5591 5586 5582 5578 5573 5570 5566 5563 5560 5557 5554 5552 5550 5548 5546 5544 5543 5542 5540 5539 5538 5536 5534 5532
5666 5663 5659 5656 5652 5649 5645 5641 5637 5632 5627 5622 5617 5612 5607 5601 5596 5591 5586 5581 5577 5573 5569 5566 5562 5559 5557 5554 5552 5550 5548 5547 5545 5544 5543 5543 5542 5541 5539 5538 5537 5535 5533
5660 5657 5654 5650 5647 5643 5639 5635 5630 5625 5620 5614 5609 5603 5597 5592 5587 5582 5577 5573 5569 5566 5563 5560 5557 5554 5552 5550 5548 5546 5545 5545 5544 5544 5543 5543 5542 5541 5540 5539 5538 5537 5535
5655 5652 5649 5646 5642 5638 5633 5628 5623 5618 5612 5606 5600 5595 5589 5584 5579 5575 5570 5566 5563 5560 5558 5555 5553 5550 5548 5547 5545 5545 5544 5544 5544 5544 5544 5544 5543 5542 5541 5540 5540 5538 5537
Wind_Speed
33 35 36 36 34 33 33 31 32 32 33 34 33 32 31 31 31 31 32 33 34 34 33 34 34 35 35 35 37 38 41 43 44 44 45 46 48 49 51 53 54 56 57
36 36 37 37 36 35 34 33 33 34 36 37 36 35 34 34 34 35 35 35 36 36 36 37 37 37 37 38 39 41 43 44 44 45 46 47 49 51 53 54 56 58 59
37 37 38 37 36 35 35 36 36 37 39 39 38 37 37 37 37 37 37 37 38 39 39 38 38 38 39 40 41 42 43 45 45 46 48 49 50 52 54 56 57 58 60
36 37 36 34 34 35 36 38 39 39 39 40 39 38 37 37 38 38 38 39 40 39 41 41 40 40 41 42 43 44 44 45 47 49 50 52 53 53 54 56 58 59 60
36 34 32 32 33 35 37 39 40 40 39 39 39 38 38 38 39 40 40 41 40 41 42 42 43 43 44 44 45 46 46 48 50 51 53 55 55 56 56 56 58 60 61
34 31 30 31 33 36 39 40 40 41 40 40 40 40 40 39 39 40 41 42 43 44 44 44 44 45 46 46 47 48 49 51 53 54 55 57 58 59 59 58 59 60 61
30 29 30 32 35 38 40 41 42 42 40 40 41 41 41 42 42 43 44 44 45 45 45 46 47 47 48 49 50 51 53 55 56 57 58 59 60 60 60 60 60 59 61
27 29 31 34 37 39 41 41 42 41 40 40 41 42 43 45 45 46 46 47 47 47 48 48 49 50 50 51 52 54 56 57 58 59 60 61 62 60 61 62 62 62 62
28 31 34 37 40 42 42 40 40 40 39 39 40 42 45 46 48 49 49 50 50 51 51 51 51 52 53 54 56 57 58 59 60 61 62 61 61 61 62 63 64 65 65
32 34 38 40 42 42 42 44 43 39 37 39 41 43 46 49 50 51 52 52 53 54 54 55 55 56 57 58 58 59 59 59 60 61 61 61 61 61 61 62 64 66 67
36 37 39 41 42 43 43 43 41 40 39 39 42 45 48 50 52 53 54 55 56 57 58 58 58 58 59 59 59 59 60 60 61 61 60 59 60 60 60 62 64 66 68
37 39 40 41 43 43 44 44 43 41 41 43 46 48 50 52 54 55 56 57 58 59 60 60 59 59 59 59 59 59 59 59 60 60 59 59 59 59 60 62 64 66 69
40 41 41 43 44 45 45 46 47 47 47 48 50 52 53 54 55 57 58 59 59 60 60 59 58 58 59 59 59 58 59 60 60 59 58 58 57 58 60 62 64 65 65
42 41 42 43 45 47 49 51 53 53 53 53 54 54 54 54 55 57 57 57 58 58 57 57 57 57 57 58 58 58 59 59 58 57 57 57 58 59 60 60 60 59 56
43 43 44 47 51 54 55 57 57 56 56 55 54 54 54 54 54 55 55 55 56 56 56 56 55 56 57 57 58 58 58 57 56 55 55 56 57 57 57 56 53 50 45
46 48 52 54 56 56 57 57 57 57 56 55 55 54 53 52 52 53 53 54 53 53 54 54 55 56 57 57 57 57 55 53 53 53 53 54 54 53 51 48 44 39 34
52 55 56 56 56 57 56 56 56 55 55 54 53 51 50 49 50 50 51 51 51 52 53 54 55 56 55 54 53 51 50 50 50 50 50 49 48 45 41 37 33 28 24
54 54 54 55 54 54 54 54 53 53 52 50 48 47 46 46 47 47 48 49 51 52 53 53 53 52 50 49 48 48 48 47 47 46 44 41 38 35 30 27 23 20 18
52 52 52 52 52 51 51 50 49 48 46 44 43 42 43 44 45 47 48 49 50 50 50 49 48 46 45 45 44 44 43 42 41 39 36 33 29 26 22 18 16 14 13
49 49 49 49 48 47 45 44 43 41 40 39 39 40 41 42 44 45 46 47 47 46 45 44 43 43 42 41 40 38 38 37 35 33 29 25 22 18 14 11 10 10 9
45 45 44 43 42 41 40 39 37 37 37 37 37 39 40 42 43 43 43 42 42 42 42 41 40 39 38 36 34 33 32 30 28 25 22 18 14 10 8 7 7 7 7
41 40 39 38 37 36 35 34 34 34 34 35 36 37 38 39 39 40 40 40 40 39 39 37 36 34 32 31 29 27 25 23 20 17 14 10 7 5 5 5 5 5 6
35 34 33 32 32 31 30 31 31 32 32 33 34 35 36 38 38 38 38 37 36 35 33 32 30 29 27 25 24 22 19 16 13 10 7 5 3 3 4 4 5 6 7
28 27 27 26 26 26 27 27 28 29 31 33 34 35 36 37 37 36 35 33 31 29 27 26 24 23 22 20 18 16 12 9 7 4 2 1 2 3 4 5 6 7 8
22 22 22 23 23 24 25 26 27 29 31 32 33 34 34 34 33 31 30 28 26 23 22 20 19 18 17 15 13 10 7 4 1 1 2 3 4 4 5 6 6 7 8
18 19 20 20 21 22 24 26 28 30 31 32 32 32 31 30 29 27 24 22 20 19 17 16 15 14 12 10 7 4 1 1 2 4 5 5 5 6 6 6 7 8 9
Wind_Direction
280 286 289 294 297 299 302 302 300 299 296 294 293 293 293 293 292 292 293 294 294 293 291 294 295 293 291 288 285 284 284 285 284 283 284 286 287 287 287 286 286 287 286
280 286 289 292 295 297 298 298 297 294 292 290 289 289 289 290 289 288 289 290 291 292 291 291 292 291 289 288 287 286 287 287 286 285 286 287 288 288 288 288 287 287 287
279 284 287 290 292 293 296 297 295 291 289 287 285 285 285 286 287 288 287 288 289 291 293 292 291 292 290 289 289 288 288 289 288 288 287 288 288 289 289 288 288 287 286
274 279 282 285 288 291 293 294 292 287 286 284 284 283 283 285 287 287 288 288 290 291 292 293 293 292 291 291 291 290 290 290 289 289 289 289 290 289 289 289 288 288 287
270 272 276 282 286 288 289 289 289 287 284 284 285 285 284 286 287 289 290 291 292 293 294 293 293 292 291 291 291 291 291 291 291 291 291 291 291 290 289 288 288 288 288
262 266 273 279 282 282 283 284 286 286 287 288 288 288 287 288 290 290 291 292 293 293 293 292 292 292 292 292 292 291 290 291 292 292 291 292 292 291 291 290 289 288 288
256 262 268 273 275 278 279 281 283 285 287 289 289 289 289 290 290 290 291 291 292 291 292 292 292 292 291 291 291 290 291 291 292 292 292 292 293 292 292 291 290 289 288
258 262 265 268 272 273 276 277 282 285 288 290 290 290 290 291 291 291 291 291 291 291 292 292 292 292 291 292 292 291 291 291 292 293 293 293 294 294 294 292 290 289 288
262 264 265 267 270 273 275 276 280 284 287 288 288 290 290 291 291 291 291 291 291 291 291 291 291 290 291 292 292 292 292 292 293 294 295 294 294 295 295 293 291 290 289
265 266 268 271 274 276 278 280 280 283 285 287 288 290 291 291 291 290 290 289 289 290 290 291 291 291 291 292 292 293 292 294 296 298 298 297 296 296 295 293 292 291 291
268 270 272 274 279 280 281 282 283 283 284 285 288 289 289 289 289 288 288 288 288 289 290 290 291 292 292 293 293 294 295 296 298 299 299 298 298 296 294 293 293 292 292
271 271 274 276 279 280 281 282 284 285 284 285 287 288 288 287 287 287 287 287 287 288 289 290 291 292 292 293 295 296 298 298 299 300 299 298 297 296 294 294 294 294 294
272 273 275 278 279 282 283 284 285 287 288 288 288 288 287 287 286 286 286 287 287 288 288 289 290 291 293 294 296 298 298 299 300 301 300 298 297 296 295 295 296 296 297
271 274 278 281 284 286 287 288 289 290 290 290 289 288 288 287 286 287 287 287 287 287 288 290 291 293 295 296 297 298 299 300 301 300 298 297 297 297 297 297 298 298 300
272 277 281 285 288 289 290 290 290 290 291 290 290 289 289 288 287 287 286 287 286 286 288 290 292 293 296 297 298 299 300 300 299 299 298 298 298 298 298 299 299 301 303
276 280 285 288 289 289 289 290 290 291 291 291 292 291 289 289 288 287 286 286 287 289 290 292 295 296 297 298 299 299 298 298 298 299 299 299 299 300 300 301 303 304 306
283 285 287 288 288 289 289 290 290 291 291 291 291 291 290 289 288 287 287 287 288 290 292 295 296 296 296 298 299 299 298 298 299 299 300 300 300 301 302 304 306 308 309
285 286 287 288 288 289 289 290 290 291 291 291 291 289 288 287 287 287 288 289 291 293 294 295 296 297 297 298 298 299 299 299 300 300 300 301 302 303 305 306 307 309 312
285 287 288 288 289 289 290 290 291 291 291 291 291 290 289 288 288 289 290 292 294 295 296 297 297 298 298 299 299 300 299 300 300 300 301 303 304 306 307 307 308 312 317
285 287 288 288 289 290 291 292 292 293 293 292 292 292 291 290 291 292 293 294 296 297 298 299 298 299 299 300 300 300 300 300 301 302 304 306 307 308 309 311 315 322 329
286 287 288 289 290 291 292 294 294 294 294 294 293 293 293 293 295 296 297 298 299 299 300 300 299 299 299 299 298 299 299 300 301 303 306 308 310 313 318 323 330 339 348
287 288 290 291 292 293 294 295 295 296 295 296 296 297 298 298 299 299 300 300 300 300 300 299 298 298 297 298 298 300 300 300 301 303 306 310 315 326 336 343 353 4 10
288 291 292 293 294 295 296 297 298 299 300 300 301 302 302 303 303 303 303 302 302 301 300 299 299 298 299 299 300 301 300 299 299 302 306 314 331 357 12 23 28 29 28
292 294 296 297 298 299 300 302 304 305 306 306 306 306 306 306 306 305 305 304 303 303 302 301 301 301 301 302 302 302 299 298 297 303 317 9 45 45 45 47 44 40 40
295 299 301 301 303 305 307 309 310 311 311 310 310 310 309 309 308 308 307 306 305 304 303 303 303 304 304 304 304 302 302 299 303 43 83 82 74 63 58 55 52 51 52
300 303 306 309 312 314 316 317 317 317 316 316 315 315 314 312 312 311 310 308 307 306 305 305 306 306 306 306 303 301 293 114 101 99 95 87 77 71 64 64 64 63 61